Back to catalog

PHASMA-DIRAC

LostScienceSSO
NORAD 66746·PAYLOAD·🇬🇷 Greece
This satellite name has not been confirmed by official sources yet.

Launched Nov 28, 2025 from Vandenberg Space Force Base

Loading…

Next Passes (next 24 hours)

TLE

StaleSource: Space-Track

Epoch: Apr 7, 2026, 04:45 UTC

1 66746U 25276CJ  26097.19793056  .00020467  00000-0  89148-3 0  9997
2 66746  97.3654 171.5433 0012421 195.3082 164.7781 15.22167227 19668

Track PHASMA-DIRAC in real time with AllMySat

Download on the App Store